Overview Statistics Trail Chart Weather Telemetry Raw packets
 

This is the latest recevied weather packets stored in our database for station/object W4UWO. If no packets are shown the sender has not sent any weather packets the latest 10 day(s).

<< 26 27 28 29 30 31 32 >>
Time Temp. Humidity Pressure Rain* Wind** Luminosity Snow
1788443247 28.89° C 67% 1019.2 hPa 0 mm - 251 W/m² -
1788442944 28.89° C 68% 1019.4 hPa 0 mm - 102 W/m² -
1788442641 28.89° C 69% 1019.4 hPa 0 mm - 285 W/m² -
1788442338 29.44° C 69% 1019.2 hPa 0 mm - 110 W/m² -
1788442037 28.89° C 69% 1019.1 hPa 0 mm - 159 W/m² -
1788441732 28.89° C 70% 1019.3 hPa 0 mm - 221 W/m² -
1788441427 28.33° C 71% 1019.5 hPa 0 mm - 213 W/m² -
1788441126 27.78° C 73% 1019.5 hPa 0 mm - 201 W/m² -
1788440822 27.22° C 74% 1019.4 hPa 0 mm - 124 W/m² -
1788440516 27.22° C 75% 1019.4 hPa 0 mm - 171 W/m² -
1788440214 26.67° C 76% 1019.3 hPa 0 mm - 154 W/m² -
1788439910 26.67° C 75% 1019.4 hPa 0 mm - 141 W/m² -
1788439609 26.67° C 77% 1019.5 hPa 0 mm - 127 W/m² -
1788439310 26.11° C 78% 1019.5 hPa 0 mm - 113 W/m² -
1788439009 26.11° C 78% 1019.4 hPa 0 mm - 101 W/m² -
1788438708 25.56° C 79% 1019.5 hPa 0 mm - 90 W/m² -
1788438408 25° C 82% 1019.4 hPa 0 mm - 80 W/m² -
1788438102 25° C 83% 1019.2 hPa 0 mm - 70 W/m² -
1788437801 25° C 82% 1019.3 hPa 0 mm - 62 W/m² -
1788437497 25° C 82% 1019.3 hPa 0 mm - 54 W/m² -
1788437196 24.44° C 83% 1019.1 hPa 0 mm - 47 W/m² -
1788436891 24.44° C 85% 1019.1 hPa 0 mm - 40 W/m² -
1788436589 23.89° C 86% 1019.2 hPa 0 mm - 33 W/m² -
1788436285 23.33° C 87% 1019.2 hPa 0 mm - 27 W/m² -
1788435980 23.33° C 89% 1019.1 hPa 0 mm - 22 W/m² -

* Rain latest hour (hover to see other rain measurements)
** Current wind speed in m/s (hover to see current wind gust speed)